Keystone Airpark, Keystone He, FL

1:41 PM EDT on May 26, 2017 (GMT -0400)
Keystone Airpark, Keystone He

Weather History for K42J - February, 2014

Change the Weather History Date:

Saturday, February 15, 2014

  Actual Average (KGNV) Record (KGNV)
Temperature  
Mean Temperature 50 °F -  
Max Temperature 62 °F 70 °F 85 °F (1932)
Min Temperature 39 °F 46 °F 16 °F (1899)
Degree Days  
Heating Degree Days 14    
Moisture  
Dew Point 39 °F    
Average Humidity 65    
Maximum Humidity 100    
Minimum Humidity 27    
Precipitation  
Precipitation 0.00 in - - ()
Sea Level Pressure  
Sea Level Pressure 30.00 in    
Wind  
Wind Speed 10 mph (West)    
Max Wind Speed 25 mph    
Max Gust Speed 30 mph    
Visibility 10 miles    
Events      
Averages and records for this station are not official NWS values.
T = Trace of Precipitation, MM = Missing Value Source: NWS Daily Summary

Daily Weather History Graph

Daily Weather History Graph

Search for Another Location

Airport or City:

Trip Planner

Search our weather history database for the weather conditions in past years. The results will help you decide how hot, cold, wet, or windy it might be!

Date:

Astronomy

Feb. 15, 2014 Rise Set
Actual Time 7:07 AM EST 6:17 PM EST
Civil Twilight 6:43 AM EST 6:41 PM EST
Nautical Twilight 6:15 AM EST 7:09 PM EST
Astronomical Twilight 5:47 AM EST 7:37 PM EST
Moon 7:08 PM EST (2/15) 7:12 AM EST (2/15)
Length of Visible Light 11h 58m
Length of Day
11h 09m
Full, 100% of the Moon is Illuminated
Feb 15
Full
Feb 22
Last Quarter
Mar 1
New
Mar 8
First Quarter
Mar 16
Full

Hourly Weather History & Observations

Time (EST) Temp. Windchill Dew Point Humidity Pressure Visibility Wind Dir Wind Speed Gust Speed Precip Events Conditions
12:15 AM 48.2 °F - 44.6 °F 87% 29.91 in 10.0 mi SSW 8.1 mph - N/A   Clear
12:35 AM 48.2 °F - 44.6 °F 87% 29.91 in 10.0 mi SSW 6.9 mph - N/A   Scattered Clouds
12:55 AM 48.2 °F - 46.4 °F 93% 29.90 in 10.0 mi SW 8.1 mph - N/A   Mostly Cloudy
1:15 AM 48.2 °F - 46.4 °F 93% 29.91 in 10.0 mi SW 8.1 mph - N/A   Mostly Cloudy
1:35 AM 48.2 °F - 46.4 °F 93% 29.91 in 10.0 mi SW 6.9 mph - N/A   Mostly Cloudy
1:55 AM 48.2 °F - 46.4 °F 93% 29.89 in 10.0 mi SSW 9.2 mph - N/A   Mostly Cloudy
2:15 AM 48.2 °F - 46.4 °F 93% 29.87 in 10.0 mi SSW 9.2 mph - N/A   Partly Cloudy
2:35 AM 48.2 °F - 46.4 °F 93% 29.85 in 10.0 mi SSW 10.4 mph - N/A   Clear
2:55 AM 48.2 °F - 48.2 °F 100% 29.85 in 10.0 mi SSW 11.5 mph 16.1 mph N/A   Clear
3:15 AM 50.0 °F - 48.2 °F 94% 29.84 in 10.0 mi SSW 9.2 mph - N/A   Clear
3:35 AM 50.0 °F - 48.2 °F 94% 29.84 in 10.0 mi SSW 9.2 mph - N/A   Clear
3:55 AM 51.8 °F - 48.2 °F 88% 29.84 in 10.0 mi SW 10.4 mph - N/A   Partly Cloudy
4:15 AM 51.8 °F - 48.2 °F 88% 29.84 in 10.0 mi SSW 9.2 mph - N/A   Scattered Clouds
4:35 AM 51.8 °F - 50.0 °F 94% 29.82 in 10.0 mi SSW 11.5 mph 18.4 mph N/A   Scattered Clouds
4:55 AM 53.6 °F - 50.0 °F 88% 29.83 in 10.0 mi SW 11.5 mph 16.1 mph N/A   Scattered Clouds
5:15 AM 53.6 °F - 51.8 °F 94% 29.82 in 10.0 mi SW 10.4 mph - N/A   Mostly Cloudy
5:35 AM 53.6 °F - 51.8 °F 94% 29.87 in 3.0 mi NW 25.3 mph 29.9 mph N/A   Mostly Cloudy
5:55 AM 50.0 °F - 46.4 °F 87% 29.89 in 10.0 mi WNW 15.0 mph 24.2 mph N/A   Overcast
6:15 AM 50.0 °F - 46.4 °F 87% 29.89 in 7.0 mi WNW 11.5 mph 20.7 mph N/A   Overcast
6:35 AM 50.0 °F - 46.4 °F 87% 29.89 in 10.0 mi West 10.4 mph - N/A   Overcast
6:55 AM 48.2 °F - 46.4 °F 93% 29.91 in 10.0 mi West 9.2 mph - N/A   Scattered Clouds
7:15 AM 50.0 °F - 44.6 °F 82% 29.92 in 10.0 mi West 10.4 mph 16.1 mph N/A   Mostly Cloudy
7:35 AM 50.0 °F - 44.6 °F 82% 29.93 in 10.0 mi West 11.5 mph - N/A   Scattered Clouds
7:55 AM 50.0 °F - 44.6 °F 82% 29.95 in 10.0 mi West 11.5 mph 17.3 mph N/A   Partly Cloudy
8:15 AM 50.0 °F - 42.8 °F 76% 29.96 in 10.0 mi West 11.5 mph - N/A   Clear
8:35 AM 51.8 °F - 42.8 °F 71% 29.96 in 10.0 mi West 11.5 mph 19.6 mph N/A   Clear
8:55 AM 51.8 °F - 39.2 °F 62% 29.97 in 10.0 mi WNW 16.1 mph 24.2 mph N/A   Clear
9:15 AM 53.6 °F - 39.2 °F 58% 29.98 in 10.0 mi West 17.3 mph 20.7 mph N/A   Clear
9:35 AM 53.6 °F - 35.6 °F 51% 29.99 in 10.0 mi NW 17.3 mph 27.6 mph N/A   Clear
9:55 AM 53.6 °F - 35.6 °F 51% 30.00 in 10.0 mi WNW 16.1 mph 23.0 mph N/A   Clear
10:15 AM 53.6 °F - 33.8 °F 47% 30.01 in 10.0 mi NW 17.3 mph 24.2 mph N/A   Clear
10:35 AM 55.4 °F - 35.6 °F 47% 30.02 in 10.0 mi NW 13.8 mph - N/A   Clear
10:55 AM 55.4 °F - 35.6 °F 47% 30.03 in 10.0 mi NW 15.0 mph 20.7 mph N/A   Clear
11:15 AM 55.4 °F - 33.8 °F 44% 30.03 in 10.0 mi NW 17.3 mph 21.9 mph N/A   Clear
11:35 AM 55.4 °F - 33.8 °F 44% 30.03 in 10.0 mi NW 10.4 mph 19.6 mph N/A   Clear
11:55 AM 57.2 °F - 32.0 °F 38% 30.03 in 10.0 mi NW 15.0 mph 26.5 mph N/A   Clear
12:15 PM 57.2 °F - 33.8 °F 41% 30.02 in 10.0 mi NW 15.0 mph - N/A   Clear
12:35 PM 57.2 °F - 37.4 °F 48% 30.03 in 10.0 mi West 15.0 mph 19.6 mph N/A   Clear
12:55 PM 59.0 °F - 35.6 °F 42% 30.03 in 10.0 mi West 13.8 mph 18.4 mph N/A   Clear
1:15 PM 59.0 °F - 35.6 °F 42% 30.03 in 10.0 mi WNW 13.8 mph 17.3 mph N/A   Clear
1:35 PM 59.0 °F - 35.6 °F 42% 30.03 in 10.0 mi West 11.5 mph 18.4 mph N/A   Clear
1:55 PM 60.8 °F - 35.6 °F 39% 30.02 in 10.0 mi WNW 11.5 mph 19.6 mph N/A   Clear
2:15 PM 60.8 °F - 33.8 °F 36% 30.02 in 10.0 mi WNW 9.2 mph 19.6 mph N/A   Clear
2:35 PM 62.6 °F - 32.0 °F 32% 30.03 in 10.0 mi WNW 13.8 mph 20.7 mph N/A   Clear
2:55 PM 62.6 °F - 32.0 °F 32% 30.03 in 10.0 mi NW 13.8 mph 20.7 mph N/A   Clear
3:15 PM 62.6 °F - 32.0 °F 32% 30.03 in 10.0 mi NW 11.5 mph 17.3 mph N/A   Clear
3:35 PM 62.6 °F - 32.0 °F 32% 30.03 in 10.0 mi WNW 15.0 mph 19.6 mph N/A   Clear
3:55 PM 62.6 °F - 32.0 °F 32% 30.04 in 10.0 mi WNW 8.1 mph - N/A   Clear
4:15 PM 62.6 °F - 32.0 °F 32% 30.05 in 10.0 mi NW 9.2 mph 18.4 mph N/A   Clear
4:35 PM 62.6 °F - 32.0 °F 32% 30.05 in 10.0 mi WNW 10.4 mph - N/A   Clear
4:55 PM 62.6 °F - 32.0 °F 32% 30.05 in 10.0 mi West 9.2 mph - N/A   Clear
5:15 PM 62.6 °F - 28.4 °F 27% 30.06 in 10.0 mi NW 10.4 mph - N/A   Clear
5:35 PM 60.8 °F - 30.2 °F 31% 30.08 in 10.0 mi NW 8.1 mph - N/A   Clear
5:55 PM 60.8 °F - 30.2 °F 31% 30.08 in 10.0 mi NW 8.1 mph - N/A   Clear
6:15 PM 57.2 °F - 32.0 °F 38% 30.08 in 10.0 mi NNW 4.6 mph - N/A   Clear
6:35 PM 53.6 °F - 32.0 °F 44% 30.09 in 10.0 mi Calm Calm - N/A   Clear
6:55 PM 51.8 °F - 33.8 °F 50% 30.10 in 10.0 mi Calm Calm - N/A   Clear
7:15 PM 48.2 °F - 33.8 °F 58% 30.11 in 10.0 mi Calm Calm - N/A   Clear
7:35 PM 46.4 °F - 33.8 °F 62% 30.12 in 10.0 mi Calm Calm - N/A   Clear
7:55 PM 46.4 °F 45.2 °F 35.6 °F 66% 30.13 in 10.0 mi WNW 3.5 mph - N/A   Clear
8:15 PM 46.4 °F 44.3 °F 35.6 °F 66% 30.14 in 10.0 mi WSW 4.6 mph - N/A   Clear
8:35 PM 46.4 °F 45.2 °F 35.6 °F 66% 30.15 in 10.0 mi West 3.5 mph - N/A   Clear
8:55 PM 42.8 °F 41.1 °F 35.6 °F 76% 30.15 in 10.0 mi West 3.5 mph - N/A   Clear
9:15 PM 44.6 °F 43.1 °F 33.8 °F 66% 30.15 in 10.0 mi WNW 3.5 mph - N/A   Clear
9:35 PM 46.4 °F 43.5 °F 37.4 °F 71% 30.16 in 10.0 mi West 5.8 mph - N/A   Clear
9:55 PM 46.4 °F 43.5 °F 37.4 °F 71% 30.16 in 10.0 mi West 5.8 mph - N/A   Clear
10:15 PM 44.6 °F 43.1 °F 37.4 °F 76% 30.17 in 10.0 mi West 3.5 mph - N/A   Clear
10:35 PM 42.8 °F 41.1 °F 37.4 °F 81% 30.17 in 10.0 mi WNW 3.5 mph - N/A   Clear
10:55 PM 44.6 °F - 37.4 °F 76% 30.15 in 10.0 mi Calm Calm - N/A   Clear
11:15 PM 39.2 °F - 37.4 °F 93% 30.15 in 10.0 mi Calm Calm - N/A   Clear
11:35 PM 41.0 °F 37.1 °F 37.4 °F 87% 30.15 in 10.0 mi NW 5.8 mph - N/A   Clear
11:55 PM 41.0 °F 38.0 °F 39.2 °F 93% 30.16 in 10.0 mi NW 4.6 mph - N/A   Clear